Time,TemperatureF,DewpointF,PressureIn,WindDirection,WindDirectionDegrees,WindSpeedMPH,WindSpeedGustMPH,Humidity,HourlyPrecipIn,Conditions,Clouds,dailyrainin,SoftwareType,DateUTC
2014-10-31 00:09:00,52.2,51.9,29.73,ESE,107,0.0,1.0,99,0.04,,---,0.01,VWS V15.00,2014-10-31 07:09:00,
2014-10-31 00:14:00,52.1,51.8,29.73,East,92,0.0,1.0,99,0.05,,---,0.02,VWS V15.00,2014-10-31 07:14:00,
2014-10-31 00:19:00,52.0,51.7,29.73,East,81,0.0,1.0,99,0.05,,---,0.02,VWS V15.00,2014-10-31 07:19:00,
2014-10-31 00:24:00,51.9,51.6,29.73,ESE,108,0.0,1.0,99,0.05,,---,0.03,VWS V15.00,2014-10-31 07:24:00,
2014-10-31 00:29:00,51.9,51.6,29.73,ESE,113,0.0,1.0,99,0.05,,---,0.03,VWS V15.00,2014-10-31 07:29:00,
2014-10-31 00:34:00,51.8,51.5,29.73,ESE,113,0.0,0.0,99,0.04,,---,0.03,VWS V15.00,2014-10-31 07:34:00,
2014-10-31 00:44:00,51.8,51.5,29.73,ESE,113,0.0,1.0,99,0.04,,---,0.04,VWS V15.00,2014-10-31 07:44:00,
2014-10-31 00:54:00,51.8,51.5,29.74,NW,321,0.0,1.0,99,0.05,,---,0.05,VWS V15.00,2014-10-31 07:54:00,
2014-10-31 00:59:00,51.7,51.4,29.73,NW,320,0.0,0.0,99,0.05,,---,0.05,VWS V15.00,2014-10-31 07:59:00,
2014-10-31 01:09:00,51.6,51.3,29.73,East,85,0.0,1.0,99,0.06,,---,0.07,VWS V15.00,2014-10-31 08:09:00,
2014-10-31 01:14:00,51.6,51.3,29.73,East,84,0.0,0.0,99,0.06,,---,0.07,VWS V15.00,2014-10-31 08:14:00,
2014-10-31 01:19:00,51.6,51.3,29.73,East,84,0.0,0.0,99,0.06,,---,0.08,VWS V15.00,2014-10-31 08:19:00,
2014-10-31 01:24:00,51.5,51.2,29.73,East,84,0.0,0.0,99,0.06,,---,0.08,VWS V15.00,2014-10-31 08:24:00,
2014-10-31 01:29:00,51.4,51.1,29.73,East,86,0.0,1.0,99,0.06,,---,0.09,VWS V15.00,2014-10-31 08:29:00,
2014-10-31 01:39:00,51.4,51.1,29.73,ENE,63,0.0,1.0,99,0.06,,---,0.09,VWS V15.00,2014-10-31 08:39:00,
2014-10-31 01:44:00,51.3,51.0,29.74,ENE,63,0.0,0.0,99,0.05,,---,0.09,VWS V15.00,2014-10-31 08:44:00,
2014-10-31 01:49:00,51.3,51.0,29.73,ENE,63,0.0,0.0,99,0.06,,---,0.10,VWS V15.00,2014-10-31 08:49:00,
2014-10-31 01:54:00,51.3,51.0,29.73,NW,323,0.0,0.0,99,0.07,,---,0.11,VWS V15.00,2014-10-31 08:54:00,
2014-10-31 01:59:00,51.2,50.9,29.72,NW,323,0.0,0.0,99,0.07,,---,0.12,VWS V15.00,2014-10-31 08:59:00,
2014-10-31 02:04:00,51.2,50.9,29.72,NW,323,0.0,0.0,99,0.07,,---,0.12,VWS V15.00,2014-10-31 09:04:00,
2014-10-31 02:09:00,51.1,50.8,29.72,NW,323,0.0,0.0,99,0.07,,---,0.13,VWS V15.00,2014-10-31 09:09:00,
2014-10-31 02:14:00,51.1,50.8,29.73,NW,323,0.0,0.0,99,0.07,,---,0.14,VWS V15.00,2014-10-31 09:14:00,
2014-10-31 02:19:00,51.0,50.7,29.72,NW,323,0.0,0.0,99,0.07,,---,0.14,VWS V15.00,2014-10-31 09:19:00,
2014-10-31 02:24:00,51.0,50.7,29.71,NW,323,0.0,0.0,99,0.06,,---,0.14,VWS V15.00,2014-10-31 09:24:00,
2014-10-31 02:34:00,50.9,50.6,29.72,NW,323,0.0,0.0,99,0.06,,---,0.15,VWS V15.00,2014-10-31 09:34:00,
2014-10-31 02:39:00,50.9,50.6,29.72,NW,323,0.0,0.0,99,0.06,,---,0.15,VWS V15.00,2014-10-31 09:39:00,
2014-10-31 02:44:00,50.8,50.5,29.72,NW,323,0.0,0.0,99,0.06,,---,0.15,VWS V15.00,2014-10-31 09:44:00,
2014-10-31 02:49:00,50.8,50.5,29.72,NW,323,0.0,0.0,99,0.06,,---,0.15,VWS V15.00,2014-10-31 09:49:00,
2014-10-31 02:59:00,50.8,50.8,29.72,NW,323,0.0,0.0,100,0.04,,---,0.15,VWS V15.00,2014-10-31 09:59:00,
2014-10-31 03:09:00,50.7,50.7,29.71,NW,323,0.0,0.0,100,0.04,,---,0.16,VWS V15.00,2014-10-31 10:09:00,
2014-10-31 03:14:00,50.7,50.7,29.71,NW,323,0.0,0.0,100,0.03,,---,0.16,VWS V15.00,2014-10-31 10:14:00,
2014-10-31 03:19:00,50.7,50.7,29.70,NW,323,0.0,0.0,100,0.02,,---,0.16,VWS V15.00,2014-10-31 10:19:00,
2014-10-31 03:24:00,50.7,50.7,29.70,NW,323,0.0,0.0,100,0.03,,---,0.17,VWS V15.00,2014-10-31 10:24:00,
2014-10-31 03:29:00,50.8,50.8,29.70,NW,323,0.0,0.0,100,0.03,,---,0.17,VWS V15.00,2014-10-31 10:29:00,
2014-10-31 03:34:00,50.7,50.7,29.70,NW,323,0.0,0.0,100,0.02,,---,0.17,VWS V15.00,2014-10-31 10:34:00,
2014-10-31 03:39:00,50.7,50.7,29.70,NW,323,0.0,0.0,100,0.02,,---,0.17,VWS V15.00,2014-10-31 10:39:00,
2014-10-31 03:44:00,50.6,50.6,29.69,NW,323,0.0,0.0,100,0.02,,---,0.17,VWS V15.00,2014-10-31 10:44:00,
2014-10-31 03:49:00,50.6,50.6,29.69,NW,323,0.0,0.0,100,0.02,,---,0.17,VWS V15.00,2014-10-31 10:49:00,
2014-10-31 03:54:00,50.6,50.6,29.69,NW,323,0.0,0.0,100,0.02,,---,0.17,VWS V15.00,2014-10-31 10:54:00,
2014-10-31 03:59:00,50.6,50.6,29.69,NW,323,0.0,0.0,100,0.02,,---,0.17,VWS V15.00,2014-10-31 10:59:00,
2014-10-31 04:04:00,50.6,50.6,29.69,NW,323,0.0,0.0,100,0.02,,---,0.17,VWS V15.00,2014-10-31 11:04:00,
2014-10-31 04:09:00,50.5,50.5,29.68,NW,323,0.0,0.0,100,0.01,,---,0.17,VWS V15.00,2014-10-31 11:09:00,
2014-10-31 04:14:00,50.5,50.5,29.68,NW,323,0.0,0.0,100,0.01,,---,0.17,VWS V15.00,2014-10-31 11:14:00,
2014-10-31 04:19:00,50.5,50.5,29.68,NW,323,0.0,0.0,100,0.01,,---,0.17,VWS V15.00,2014-10-31 11:19:00,
2014-10-31 04:24:00,50.4,50.4,29.68,NW,323,0.0,0.0,100,0.01,,---,0.17,VWS V15.00,2014-10-31 11:24:00,
2014-10-31 04:34:00,50.5,50.5,29.68,NW,323,0.0,0.0,100,0.01,,---,0.18,VWS V15.00,2014-10-31 11:34:00,
2014-10-31 04:44:00,50.5,50.5,29.68,NW,323,0.0,0.0,100,0.01,,---,0.18,VWS V15.00,2014-10-31 11:44:00,
2014-10-31 04:49:00,50.5,50.5,29.68,NW,323,0.0,0.0,100,0.01,,---,0.18,VWS V15.00,2014-10-31 11:49:00,
2014-10-31 04:54:00,50.5,50.5,29.67,NW,323,0.0,0.0,100,0.02,,---,0.19,VWS V15.00,2014-10-31 11:54:00,
2014-10-31 05:04:00,50.5,50.5,29.67,WNW,299,0.0,0.0,100,0.02,,---,0.19,VWS V15.00,2014-10-31 12:04:00,
2014-10-31 05:09:00,50.4,50.4,29.67,WSW,245,0.0,1.0,100,0.03,,---,0.20,VWS V15.00,2014-10-31 12:09:00,
2014-10-31 05:14:00,50.3,50.3,29.67,WSW,245,0.0,0.0,100,0.03,,---,0.20,VWS V15.00,2014-10-31 12:14:00,
2014-10-31 05:19:00,50.1,50.1,29.67,WSW,245,0.0,0.0,100,0.04,,---,0.21,VWS V15.00,2014-10-31 12:19:00,
2014-10-31 05:24:00,50.0,50.0,29.67,WSW,245,0.0,0.0,100,0.04,,---,0.21,VWS V15.00,2014-10-31 12:24:00,
2014-10-31 05:29:00,49.9,49.6,29.67,WSW,245,0.0,0.0,99,0.05,,---,0.22,VWS V15.00,2014-10-31 12:29:00,
2014-10-31 05:34:00,49.8,49.5,29.67,WSW,245,0.0,0.0,99,0.04,,---,0.22,VWS V15.00,2014-10-31 12:34:00,
2014-10-31 05:39:00,49.7,49.4,29.66,WNW,283,0.0,0.0,99,0.04,,---,0.22,VWS V15.00,2014-10-31 12:39:00,
2014-10-31 05:44:00,49.6,49.3,29.66,WNW,283,0.0,0.0,99,0.04,,---,0.22,VWS V15.00,2014-10-31 12:44:00,
2014-10-31 05:49:00,49.6,49.3,29.66,WNW,283,0.0,0.0,99,0.05,,---,0.23,VWS V15.00,2014-10-31 12:49:00,
2014-10-31 05:54:00,49.5,49.2,29.67,WNW,283,0.0,1.0,99,0.05,,---,0.23,VWS V15.00,2014-10-31 12:54:00,
2014-10-31 05:59:00,49.5,49.5,29.67,WNW,283,0.0,0.0,100,0.04,,---,0.23,VWS V15.00,2014-10-31 12:59:00,
2014-10-31 06:04:00,49.5,49.5,29.67,WNW,283,0.0,0.0,100,0.04,,---,0.23,VWS V15.00,2014-10-31 13:04:00,
2014-10-31 06:09:00,49.5,49.5,29.67,WNW,283,0.0,0.0,100,0.05,,---,0.24,VWS V15.00,2014-10-31 13:09:00,
2014-10-31 06:14:00,49.5,49.5,29.67,WNW,283,0.0,0.0,100,0.04,,---,0.24,VWS V15.00,2014-10-31 13:14:00,
2014-10-31 06:19:00,49.6,49.6,29.67,WNW,283,0.0,0.0,100,0.05,,---,0.25,VWS V15.00,2014-10-31 13:19:00,
2014-10-31 06:24:00,49.6,49.6,29.67,WNW,283,0.0,0.0,100,0.04,,---,0.25,VWS V15.00,2014-10-31 13:24:00,
2014-10-31 06:29:00,49.8,49.8,29.67,WNW,283,0.0,0.0,100,0.05,,---,0.26,VWS V15.00,2014-10-31 13:29:00,
2014-10-31 06:39:00,50.0,50.0,29.67,WNW,283,0.0,0.0,100,0.05,,---,0.27,VWS V15.00,2014-10-31 13:39:00,
2014-10-31 06:44:00,50.0,50.0,29.67,SW,217,0.0,1.0,100,0.05,,---,0.27,VWS V15.00,2014-10-31 13:44:00,
2014-10-31 06:49:00,50.1,50.1,29.67,SSW,211,0.0,1.0,100,0.06,,---,0.28,VWS V15.00,2014-10-31 13:49:00,
2014-10-31 06:54:00,50.1,50.1,29.67,SSW,212,1.0,1.0,100,0.06,,---,0.29,VWS V15.00,2014-10-31 13:54:00,
2014-10-31 06:59:00,50.1,50.1,29.67,SW,217,0.0,1.0,100,0.06,,---,0.29,VWS V15.00,2014-10-31 13:59:00,
2014-10-31 07:04:00,50.1,50.1,29.68,SW,219,0.0,1.0,100,0.07,,---,0.30,VWS V15.00,2014-10-31 14:04:00,
2014-10-31 07:09:00,50.1,50.1,29.68,WSW,251,0.0,1.0,100,0.07,,---,0.30,VWS V15.00,2014-10-31 14:09:00,
2014-10-31 07:14:00,50.1,50.1,29.68,SE,141,0.0,2.0,100,0.07,,---,0.31,VWS V15.00,2014-10-31 14:14:00,
2014-10-31 07:24:00,50.2,50.2,29.68,SW,214,2.0,3.0,100,0.07,,---,0.32,VWS V15.00,2014-10-31 14:24:00,
2014-10-31 07:29:00,50.2,50.2,29.68,SW,228,2.0,2.0,100,0.08,,---,0.33,VWS V15.00,2014-10-31 14:29:00,
2014-10-31 07:34:00,50.2,50.2,29.69,SSW,210,0.0,3.0,100,0.07,,---,0.33,VWS V15.00,2014-10-31 14:34:00,
2014-10-31 07:44:00,50.3,50.3,29.69,WSW,245,0.0,2.0,100,0.09,,---,0.36,VWS V15.00,2014-10-31 14:44:00,
2014-10-31 07:49:00,50.3,50.3,29.70,SW,236,0.0,2.0,100,0.09,,---,0.36,VWS V15.00,2014-10-31 14:49:00,
2014-10-31 07:54:00,50.4,50.4,29.70,SW,236,2.0,4.0,100,0.09,,---,0.37,VWS V15.00,2014-10-31 14:54:00,
2014-10-31 08:04:00,50.3,50.3,29.70,SE,141,2.0,4.0,100,0.10,,---,0.39,VWS V15.00,2014-10-31 15:04:00,
2014-10-31 08:09:00,50.3,50.3,29.71,SSW,194,0.0,3.0,100,0.10,,---,0.40,VWS V15.00,2014-10-31 15:09:00,